Hourly Weather Gold Coast

Today, 11 July, Saturday

Time Temperature Precipitation Wind Pressure Humidity
00:00 +14°C° 0 mm 1 mps 763 mmHg 90%
01:00 +14°C° 0 mm 1 mps 763 mmHg 91%
02:00 +14°C° 0.1 mm 1 mps 762 mmHg 90%
03:00 +14°C° 0.1 mm 1 mps 762 mmHg 90%
04:00 +15°C° 0 mm 2 mps 761 mmHg 91%
05:00 +15°C° 0 mm 1 mps 761 mmHg 92%
06:00 +14°C° 0 mm 1 mps 761 mmHg 93%
07:00 +14°C° 0 mm 1 mps 761 mmHg 94%
08:00 +18°C° 0 mm 1 mps 761 mmHg 86%
09:00 +20°C° 0 mm 1 mps 761 mmHg 78%
10:00 +22°C° 0 mm 1 mps 761 mmHg 70%
11:00 +21°C° 0.1 mm 2 mps 761 mmHg 69%
12:00 +23°C° 0.1 mm 2 mps 760 mmHg 67%
13:00 +23°C° 0.1 mm 2 mps 759 mmHg 66%
14:00 +23°C° 0.2 mm 2 mps 759 mmHg 70%
15:00 +21°C° 0.2 mm 3 mps 759 mmHg 75%
16:00 +21°C° 0.2 mm 3 mps 758 mmHg 79%
17:00 +19°C° 0 mm 3 mps 758 mmHg 84%
18:00 +18°C° 0 mm 3 mps 759 mmHg 89%
19:00 +16°C° 0 mm 3 mps 759 mmHg 94%
20:00 +16°C° 0 mm 3 mps 759 mmHg 94%
21:00 +14°C° 0 mm 3 mps 759 mmHg 95%
22:00 +14°C° 0 mm 3 mps 759 mmHg 95%
23:00 +14°C° 0 mm 3 mps 759 mmHg 95%

Tomorrow, 12 July, Sunday

Time Temperature Precipitation Wind Pressure Humidity
00:00 +14°C° 0 mm 3 mps 758 mmHg 95%
01:00 +14°C° 0 mm 3 mps 758 mmHg 96%
02:00 +14°C° 0 mm 3 mps 758 mmHg 95%
03:00 +14°C° 0 mm 3 mps 757 mmHg 95%
04:00 +14°C° 0 mm 2 mps 757 mmHg 95%
05:00 +14°C° 0 mm 2 mps 757 mmHg 95%
06:00 +14°C° 0 mm 2 mps 758 mmHg 95%
07:00 +14°C° 0 mm 2 mps 758 mmHg 96%
08:00 +15°C° 0.3 mm 2 mps 758 mmHg 93%
09:00 +16°C° 0.3 mm 1 mps 759 mmHg 91%
10:00 +18°C° 0.3 mm 1 mps 759 mmHg 89%
11:00 +20°C° 0.2 mm 1 mps 758 mmHg 83%
12:00 +22°C° 0.2 mm 1 mps 758 mmHg 76%
13:00 +23°C° 0.2 mm 2 mps 757 mmHg 70%
14:00 +21°C° 0.8 mm 2 mps 757 mmHg 77%
15:00 +20°C° 0.8 mm 3 mps 757 mmHg 84%
16:00 +18°C° 0.8 mm 4 mps 757 mmHg 91%
17:00 +17°C° 0.4 mm 4 mps 757 mmHg 93%
18:00 +17°C° 0.4 mm 3 mps 757 mmHg 94%
19:00 +16°C° 0.4 mm 3 mps 758 mmHg 96%
20:00 +16°C° 0.5 mm 2 mps 758 mmHg 96%
21:00 +16°C° 0.5 mm 2 mps 758 mmHg 96%
22:00 +15°C° 0.5 mm 1 mps 758 mmHg 96%
23:00 +16°C° 0.3 mm 1 mps 758 mmHg 95%

Day after tomorrow, 13 July, Monday

Time Temperature Precipitation Wind Pressure Humidity
00:00 +16°C° 0.3 mm 1 mps 758 mmHg 95%
01:00 +16°C° 0.3 mm 2 mps 758 mmHg 95%
02:00 +15°C° 0.3 mm 2 mps 758 mmHg 95%
03:00 +15°C° 0.3 mm 2 mps 758 mmHg 96%
04:00 +15°C° 0.3 mm 2 mps 758 mmHg 97%
05:00 +15°C° 0.1 mm 2 mps 758 mmHg 97%
06:00 +15°C° 0.1 mm 2 mps 758 mmHg 97%
07:00 +14°C° 0.1 mm 3 mps 759 mmHg 97%
08:00 +16°C° 0.1 mm 3 mps 759 mmHg 95%
09:00 +16°C° 0.1 mm 2 mps 759 mmHg 92%
10:00 +17°C° 0.1 mm 2 mps 759 mmHg 90%
11:00 +18°C° 0.4 mm 3 mps 758 mmHg 80%
12:00 +19°C° 0.4 mm 3 mps 758 mmHg 70%
13:00 +20°C° 0.4 mm 4 mps 757 mmHg 60%
14:00 +20°C° 0 mm 4 mps 757 mmHg 55%
15:00 +19°C° 0 mm 4 mps 757 mmHg 50%
16:00 +19°C° 0 mm 4 mps 757 mmHg 45%
17:00 +17°C° 0 mm 4 mps 757 mmHg 50%
18:00 +14°C° 0 mm 4 mps 758 mmHg 55%
19:00 +12°C° 0 mm 5 mps 758 mmHg 59%
20:00 +10°C° 0 mm 5 mps 759 mmHg 62%
21:00 +9°C° 0 mm 5 mps 759 mmHg 65%
22:00 +10°C° 0 mm 4 mps 759 mmHg 68%
23:00 +8°C° 0 mm 4 mps 759 mmHg 71%

14 July, Tuesday

Time Temperature Precipitation Wind Pressure Humidity
00:00 +8°C° 0 mm 4 mps 759 mmHg 73%
01:00 +7°C° 0 mm 4 mps 758 mmHg 76%
02:00 +7°C° 0 mm 4 mps 758 mmHg 77%
03:00 +7°C° 0 mm 4 mps 758 mmHg 78%
04:00 +6°C° 0 mm 4 mps 758 mmHg 79%
05:00 +6°C° 0 mm 4 mps 758 mmHg 80%
06:00 +6°C° 0 mm 4 mps 759 mmHg 81%
07:00 +6°C° 0 mm 4 mps 759 mmHg 81%
08:00 +8°C° 0 mm 4 mps 759 mmHg 71%
09:00 +12°C° 0 mm 5 mps 759 mmHg 60%
10:00 +14°C° 0 mm 5 mps 759 mmHg 49%
11:00 +15°C° 0 mm 5 mps 758 mmHg 45%
12:00 +17°C° 0 mm 5 mps 757 mmHg 41%
13:00 +19°C° 0 mm 5 mps 756 mmHg 36%
14:00 +19°C° 0 mm 5 mps 756 mmHg 41%
15:00 +19°C° 0 mm 4 mps 756 mmHg 46%
16:00 +19°C° 0 mm 4 mps 756 mmHg 51%
17:00 +17°C° 0 mm 4 mps 757 mmHg 58%
18:00 +14°C° 0 mm 4 mps 757 mmHg 65%
19:00 +12°C° 0 mm 3 mps 758 mmHg 72%
20:00 +11°C° 0 mm 3 mps 758 mmHg 75%
21:00 +10°C° 0 mm 3 mps 759 mmHg 77%
22:00 +10°C° 0 mm 3 mps 759 mmHg 80%
23:00 +9°C° 0 mm 3 mps 759 mmHg 81%

15 July, Wednesday

Time Temperature Precipitation Wind Pressure Humidity
00:00 +9°C° 0 mm 3 mps 759 mmHg 83%
01:00 +8°C° 0 mm 3 mps 758 mmHg 84%
02:00 +8°C° 0 mm 3 mps 758 mmHg 84%
03:00 +8°C° 0 mm 3 mps 758 mmHg 84%
04:00 +8°C° 0 mm 3 mps 758 mmHg 84%
05:00 +7°C° 0 mm 3 mps 758 mmHg 84%
06:00 +7°C° 0 mm 3 mps 759 mmHg 84%
07:00 +7°C° 0 mm 3 mps 759 mmHg 83%
08:00 +10°C° 0 mm 3 mps 759 mmHg 72%
09:00 +13°C° 0 mm 3 mps 759 mmHg 62%
10:00 +17°C° 0 mm 3 mps 759 mmHg 51%
11:00 +18°C° 0 mm 3 mps 758 mmHg 47%
12:00 +19°C° 0 mm 3 mps 757 mmHg 43%
13:00 +20°C° 0 mm 2 mps 756 mmHg 39%
14:00 +20°C° 0 mm 2 mps 756 mmHg 42%
15:00 +20°C° 0 mm 1 mps 756 mmHg 45%
16:00 +20°C° 0 mm 1 mps 756 mmHg 48%
17:00 +18°C° 0 mm 1 mps 756 mmHg 53%
18:00 +14°C° 0 mm 1 mps 757 mmHg 58%
19:00 +12°C° 0 mm 1 mps 757 mmHg 64%
20:00 +12°C° 0 mm 2 mps 757 mmHg 65%
21:00 +12°C° 0 mm 2 mps 757 mmHg 66%
22:00 +10°C° 0 mm 2 mps 758 mmHg 68%
23:00 +10°C° 0 mm 2 mps 757 mmHg 70%

16 July, Thursday

Time Temperature Precipitation Wind Pressure Humidity
00:00 +10°C° 0 mm 2 mps 757 mmHg 72%
01:00 +9°C° 0 mm 3 mps 757 mmHg 75%
02:00 +9°C° 0 mm 3 mps 757 mmHg 75%
03:00 +9°C° 0 mm 3 mps 757 mmHg 75%
04:00 +8°C° 0 mm 4 mps 757 mmHg 76%
05:00 +8°C° 0 mm 4 mps 757 mmHg 77%
06:00 +8°C° 0 mm 4 mps 758 mmHg 77%
07:00 +8°C° 0 mm 4 mps 758 mmHg 78%
08:00 +12°C° 0 mm 4 mps 758 mmHg 70%
09:00 +15°C° 0 mm 4 mps 758 mmHg 61%
10:00 +18°C° 0 mm 4 mps 758 mmHg 53%
11:00 +19°C° 0 mm 4 mps 757 mmHg 51%
12:00 +20°C° 0 mm 4 mps 757 mmHg 48%
13:00 +20°C° 0 mm 4 mps 756 mmHg 46%
14:00 +20°C° 0 mm 4 mps 756 mmHg 48%
15:00 +20°C° 0 mm 4 mps 756 mmHg 50%
16:00 +19°C° 0 mm 4 mps 756 mmHg 53%
17:00 +17°C° 0 mm 4 mps 757 mmHg 60%
18:00 +14°C° 0 mm 4 mps 757 mmHg 66%
19:00 +12°C° 0 mm 4 mps 757 mmHg 73%
20:00 +12°C° 0 mm 4 mps 758 mmHg 75%
21:00 +11°C° 0 mm 4 mps 758 mmHg 76%
22:00 +10°C° 0 mm 5 mps 758 mmHg 78%
23:00 +9°C° 0 mm 5 mps 758 mmHg 80%
Show more